Bend, OR

1:59 PM PST on February 14, 2016 (GMT -0800)
Bend Municipal

Weather History for KBDN - August, 2013

Change the Weather History Date:

Saturday, August 31, 2013

  Actual Average (KRDM) Record (KRDM)
Temperature  
Mean Temperature 70 °F 62 °F  
Max Temperature 89 °F 81 °F 100 °F (1967)
Min Temperature 50 °F 42 °F 28 °F (2006)
Degree Days  
Heating Degree Days 0 5  
Month to date heating degree days 81  
Since 1 June heating degree days 366  
Since 1 July heating degree days 149  
Cooling Degree Days 4 1  
Month to date cooling degree days 80  
Year to date cooling degree days 206  
Since 1 June cooling degree days 201  
Growing Degree Days 20 (Base 50)    
Moisture  
Dew Point 48 °F    
Average Humidity 53    
Maximum Humidity 88    
Minimum Humidity 18    
Precipitation  
Precipitation 0.00 in 0.02 in 0.23 in (1983)
Month to date precipitation 0.50  
Year to date precipitation 5.73  
Sea Level Pressure  
Sea Level Pressure 30.04 in    
Wind  
Wind Speed 4 mph (WNW)    
Max Wind Speed 13 mph    
Max Gust Speed 20 mph    
Visibility 10 miles    
Events      
T = Trace of Precipitation, MM = Missing Value Source: NWS Daily Summary

Daily Weather History Graph

Daily Weather History Graph

Search for Another Location

Airport or City:

Trip Planner

Search our weather history database for the weather conditions in past years. The results will help you decide how hot, cold, wet, or windy it might be!

Date:

Astronomy

Aug. 31, 2013 Rise Set
Actual Time 6:27 AM PDT 7:41 PM PDT
Civil Twilight 5:57 AM PDT 8:11 PM PDT
Nautical Twilight 5:21 AM PDT 8:47 PM PDT
Astronomical Twilight 4:43 AM PDT 9:25 PM PDT
Moon 1:54 AM PDT (8/31) 4:49 PM PDT (8/31)
Length of Visible Light 14h 14m
Length of Day
13h 14m
Waning Crescent, 20% of the Moon is Illuminated
Aug 31
Waning Crescent
Sep 5
New
Sep 12
First Quarter
Sep 19
Full
Sep 26
Last Quarter

Hourly Weather History & Observations

Time (PDT) Temp. Dew Point Humidity Pressure Visibility Wind Dir Wind Speed Gust Speed Precip Events Conditions
12:15 AM 60.8 °F 50.0 °F 68% 30.14 in 10.0 mi WNW 4.6 mph - N/A   Clear
12:35 AM 59.0 °F 50.0 °F 72% 30.14 in 10.0 mi WNW 6.9 mph - N/A   Clear
12:55 AM 59.0 °F 50.0 °F 72% 30.14 in 10.0 mi WNW 5.8 mph - N/A   Clear
1:15 AM 59.0 °F 51.8 °F 77% 30.14 in 10.0 mi WNW 5.8 mph - N/A   Clear
1:35 AM 57.2 °F 51.8 °F 82% 30.14 in 10.0 mi WNW 5.8 mph - N/A   Clear
1:55 AM 57.2 °F 51.8 °F 82% 30.14 in 10.0 mi WNW 4.6 mph - N/A   Clear
2:15 AM 57.2 °F 51.8 °F 82% 30.13 in 10.0 mi WNW 4.6 mph - N/A   Clear
2:35 AM 53.6 °F 50.0 °F 88% 30.14 in 10.0 mi Calm Calm - N/A   Clear
2:55 AM 55.4 °F 50.0 °F 82% 30.14 in 10.0 mi Calm Calm - N/A   Clear
3:15 AM 53.6 °F 50.0 °F 88% 30.13 in 10.0 mi Calm Calm - N/A   Clear
3:35 AM 53.6 °F 50.0 °F 88% 30.13 in 10.0 mi Calm Calm - N/A   Clear
3:55 AM 53.6 °F 48.2 °F 82% 30.13 in 10.0 mi Calm Calm - N/A   Clear
4:15 AM 53.6 °F 48.2 °F 82% 30.12 in 10.0 mi Calm Calm - N/A   Clear
4:35 AM 53.6 °F 48.2 °F 82% 30.12 in 10.0 mi SW 6.9 mph - N/A   Clear
4:55 AM 51.8 °F 48.2 °F 88% 30.12 in 10.0 mi SSW 6.9 mph - N/A   Clear
5:15 AM 51.8 °F 48.2 °F 88% 30.12 in 10.0 mi SSW 3.5 mph - N/A   Clear
5:35 AM 51.8 °F 48.2 °F 88% 30.12 in 10.0 mi Calm Calm - N/A   Clear
5:55 AM 51.8 °F 48.2 °F 88% 30.12 in 10.0 mi SSW 3.5 mph - N/A   Clear
6:15 AM 51.8 °F 48.2 °F 88% 30.12 in 10.0 mi SSW 3.5 mph - N/A   Clear
6:35 AM 50.0 °F 46.4 °F 87% 30.12 in 10.0 mi SSW 3.5 mph - N/A   Clear
6:55 AM 51.8 °F 46.4 °F 82% 30.12 in 10.0 mi Calm Calm - N/A   Clear
7:15 AM 53.6 °F 48.2 °F 82% 30.12 in 10.0 mi Calm Calm - N/A   Clear
7:35 AM 55.4 °F 48.2 °F 77% 30.12 in 10.0 mi SSW 4.6 mph - N/A   Clear
7:55 AM 57.2 °F 48.2 °F 72% 30.12 in 10.0 mi SSW 4.6 mph - N/A   Clear
8:15 AM 59.0 °F 50.0 °F 72% 30.12 in 10.0 mi SSW 4.6 mph - N/A   Clear
8:35 AM 60.8 °F 50.0 °F 68% 30.12 in 10.0 mi Calm Calm - N/A   Clear
8:55 AM 62.6 °F 50.0 °F 63% 30.11 in 10.0 mi Calm Calm - N/A   Clear
9:15 AM 64.4 °F 50.0 °F 59% 30.11 in 10.0 mi Calm Calm - N/A   Clear
9:35 AM 66.2 °F 50.0 °F 56% 30.11 in 10.0 mi Calm Calm - N/A   Clear
9:55 AM 66.2 °F 50.0 °F 56% 30.10 in 10.0 mi Calm Calm - N/A   Clear
10:15 AM 68.0 °F 50.0 °F 52% 30.09 in 10.0 mi Calm Calm - N/A   Clear
10:35 AM 68.0 °F 50.0 °F 52% 30.09 in 10.0 mi Calm Calm - N/A   Clear
10:55 AM 71.6 °F 50.0 °F 46% 30.08 in 10.0 mi Calm Calm - N/A   Clear
11:15 AM 71.6 °F 50.0 °F 46% 30.07 in 10.0 mi Calm Calm - N/A   Clear
11:35 AM 73.4 °F 48.2 °F 41% 30.06 in 10.0 mi Calm Calm - N/A   Clear
11:55 AM 75.2 °F 48.2 °F 38% 30.05 in 10.0 mi WSW 3.5 mph - N/A   Clear
12:15 PM 75.2 °F 48.2 °F 38% 30.05 in 10.0 mi SW 4.6 mph - N/A   Clear
12:35 PM 77.0 °F 48.2 °F 36% 30.04 in 10.0 mi North 5.8 mph - N/A   Clear
12:55 PM 77.0 °F 48.2 °F 36% 30.03 in 10.0 mi Calm Calm - N/A   Clear
1:15 PM 80.6 °F 48.2 °F 32% 30.02 in 10.0 mi West 4.6 mph - N/A   Clear
1:35 PM 82.4 °F 48.2 °F 30% 30.02 in 10.0 mi Calm Calm - N/A   Clear
1:55 PM 82.4 °F 46.4 °F 28% 30.01 in 10.0 mi Calm Calm - N/A   Clear
2:15 PM 84.2 °F 48.2 °F 29% 30.00 in 10.0 mi WNW 3.5 mph - N/A   Clear
2:35 PM 84.2 °F 46.4 °F 27% 29.99 in 10.0 mi NE 5.8 mph - N/A   Clear
2:55 PM 86.0 °F 46.4 °F 25% 29.98 in 10.0 mi SW 4.6 mph - N/A   Clear
3:15 PM 86.0 °F 44.6 °F 23% 29.97 in 10.0 mi Calm Calm - N/A   Clear
3:35 PM 86.0 °F 41.0 °F 20% 29.96 in 10.0 mi Calm Calm - N/A   Clear
3:55 PM 87.8 °F 42.8 °F 21% 29.95 in 10.0 mi East 3.5 mph - N/A   Clear
4:15 PM 89.6 °F 41.0 °F 18% 29.95 in 10.0 mi Calm Calm - N/A   Clear
4:35 PM 86.0 °F 48.2 °F 27% 29.94 in 10.0 mi North 12.7 mph 19.6 mph N/A   Clear
4:55 PM 86.0 °F 46.4 °F 25% 29.94 in 10.0 mi North 9.2 mph - N/A   Clear
5:15 PM 84.2 °F 48.2 °F 29% 29.94 in 10.0 mi North 11.5 mph - N/A   Clear
5:35 PM 84.2 °F 50.0 °F 30% 29.94 in 10.0 mi North 12.7 mph - N/A   Clear
5:55 PM 84.2 °F 50.0 °F 30% 29.94 in 10.0 mi North 12.7 mph 16.1 mph N/A   Clear
6:15 PM 82.4 °F 48.2 °F 30% 29.94 in 10.0 mi North 12.7 mph 18.4 mph N/A   Clear
6:35 PM 82.4 °F 48.2 °F 30% 29.94 in 10.0 mi North 10.4 mph - N/A   Clear
6:55 PM 82.4 °F 46.4 °F 28% 29.94 in 10.0 mi North 9.2 mph - N/A   Clear
7:15 PM 80.6 °F 46.4 °F 30% 29.94 in 10.0 mi North 9.2 mph - N/A   Clear
7:35 PM 78.8 °F 48.2 °F 34% 29.94 in 10.0 mi North 8.1 mph - N/A   Clear
7:55 PM 77.0 °F 48.2 °F 36% 29.94 in 10.0 mi North 6.9 mph - N/A   Clear
8:15 PM 75.2 °F 48.2 °F 38% 29.95 in 10.0 mi NNW 6.9 mph - N/A   Clear
8:35 PM 75.2 °F 48.2 °F 38% 29.96 in 10.0 mi NW 6.9 mph - N/A   Clear
8:55 PM 73.4 °F 48.2 °F 41% 29.96 in 10.0 mi NW 5.8 mph - N/A   Clear
9:15 PM 73.4 °F 48.2 °F 41% 29.97 in 10.0 mi WNW 6.9 mph - N/A   Clear
9:35 PM 71.6 °F 48.2 °F 43% 29.97 in 10.0 mi WNW 6.9 mph - N/A   Clear
9:55 PM 71.6 °F 48.2 °F 43% 29.97 in 10.0 mi WNW 8.1 mph - N/A   Clear
10:15 PM 69.8 °F 48.2 °F 46% 29.97 in 10.0 mi WNW 6.9 mph - N/A   Clear
10:35 PM 68.0 °F 48.2 °F 49% 29.98 in 10.0 mi WNW 8.1 mph - N/A   Clear
10:55 PM 68.0 °F 48.2 °F 49% 29.97 in 10.0 mi WNW 8.1 mph - N/A   Clear
11:15 PM 68.0 °F 48.2 °F 49% 29.97 in 10.0 mi WNW 6.9 mph - N/A   Clear
11:35 PM 66.2 °F 48.2 °F 52% 29.98 in 10.0 mi West 5.8 mph - N/A   Clear
11:55 PM 66.2 °F 48.2 °F 52% 29.97 in 10.0 mi WNW 6.9 mph - N/A   Clear